DEMNG SBVT-SBAR

Flight info

Callsign DEMNG
Flight time N/A
Altitude 7000
Route GIDOD Z35 ARU
Aircraft PA24/L-SDGRY/S

Departure

Time 2026-05-01 12:48
Airport Eurico de Aguiar Salles International Airport (SBVT)

Arrival

Time N/A
Airport Aracaju - Santa Maria Airport (SBAR)
Time Latitude Longitude Altitude Speed Heading
2026-05-01 12:30 -20.26351 -40.28200 26 ft 0 kts 263°
2026-05-01 12:45 -20.26351 -40.28203 26 ft 3 kts 243°
2026-05-01 12:45 -20.26363 -40.28184 26 ft 7 kts 66°
2026-05-01 12:46 -20.26338 -40.28139 26 ft 8 kts 77°
2026-05-01 12:46 -20.26349 -40.28073 26 ft 10 kts 121°
2026-05-01 12:46 -20.26423 -40.28052 27 ft 12 kts 172°
2026-05-01 12:46 -20.26509 -40.28039 27 ft 14 kts 171°
2026-05-01 12:47 -20.26599 -40.28019 28 ft 11 kts 141°
2026-05-01 12:47 -20.26615 -40.27963 28 ft 10 kts 82°
2026-05-01 12:47 -20.26586 -40.27871 26 ft 15 kts 51°
2026-05-01 12:47 -20.26464 -40.27868 25 ft 32 kts 352°
2026-05-01 12:48 -20.26036 -40.27931 71 ft 79 kts 351°
2026-05-01 12:48 -20.25497 -40.28003 295 ft 79 kts 347°
2026-05-01 12:48 -20.24904 -40.28096 505 ft 91 kts 349°
2026-05-01 12:48 -20.24236 -40.28138 762 ft 95 kts 360°
2026-05-01 12:49 -20.23598 -40.27895 988 ft 104 kts 36°
2026-05-01 12:49 -20.23218 -40.27286 1337 ft 96 kts 68°
2026-05-01 12:49 -20.22849 -40.26685 1574 ft 102 kts 45°
2026-05-01 12:49 -20.22325 -40.26220 1912 ft 94 kts 36°
2026-05-01 12:50 -20.21771 -40.25828 2173 ft 99 kts 33°
2026-05-01 12:50 -20.21200 -40.25456 2466 ft 94 kts 31°
2026-05-01 12:50 -20.20600 -40.25087 2656 ft 100 kts 31°
2026-05-01 12:50 -20.20033 -40.24736 2936 ft 93 kts 32°
2026-05-01 12:51 -20.19462 -40.24401 3149 ft 95 kts 31°
2026-05-01 12:51 -20.18895 -40.24063 3395 ft 92 kts 32°
2026-05-01 12:51 -20.17775 -40.23377 3880 ft 92 kts 32°
2026-05-01 12:52 -20.17213 -40.23021 4083 ft 95 kts 34°
2026-05-01 12:52 -20.16082 -40.22321 4535 ft 95 kts 34°
2026-05-01 12:52 -20.15520 -40.21970 4764 ft 94 kts 34°
2026-05-01 12:53 -20.14386 -40.21261 5187 ft 94 kts 34°
2026-05-01 12:53 -20.13814 -40.20903 5403 ft 95 kts 33°
2026-05-01 12:53 -20.13242 -40.20552 5636 ft 95 kts 33°
2026-05-01 12:54 -20.12663 -40.20200 5861 ft 95 kts 34°
2026-05-01 12:54 -20.11515 -40.19491 6282 ft 96 kts 29°
2026-05-01 12:54 -20.10839 -40.19448 6441 ft 105 kts 350°
2026-05-01 12:55 -20.09487 -40.20063 6856 ft 109 kts 339°
2026-05-01 12:55 -20.08816 -40.20417 7089 ft 107 kts 338°
2026-05-01 12:55 -20.08081 -40.20700 7196 ft 118 kts 359°
2026-05-01 12:56 -20.07232 -40.20542 7180 ft 131 kts 24°
2026-05-01 12:56 -20.06342 -40.20187 7164 ft 141 kts 25°
2026-05-01 12:56 -20.05399 -40.19806 7166 ft 148 kts 24°
2026-05-01 12:56 -20.04417 -40.19419 7166 ft 153 kts 24°
2026-05-01 12:57 -20.03407 -40.19031 7173 ft 156 kts 23°
2026-05-01 12:57 -20.01371 -40.18254 7171 ft 156 kts 23°
2026-05-01 12:57 -20.00344 -40.17870 7171 ft 156 kts 24°
2026-05-01 12:58 -19.99324 -40.17475 7171 ft 156 kts 24°
2026-05-01 12:58 -19.98305 -40.17081 7172 ft 156 kts 24°
2026-05-01 12:58 -19.97285 -40.16688 7172 ft 156 kts 24°
2026-05-01 12:59 -19.95246 -40.15900 7174 ft 156 kts 24°
2026-05-01 12:59 -19.94227 -40.15508 7175 ft 156 kts 23°
2026-05-01 12:59 -19.92188 -40.14732 7175 ft 156 kts 24°
2026-05-01 13:00 -19.90159 -40.13938 7179 ft 155 kts 24°
2026-05-01 13:00 -19.89144 -40.13542 7179 ft 156 kts 23°
2026-05-01 13:01 -19.87101 -40.12757 7178 ft 156 kts 23°
2026-05-01 13:01 -19.86078 -40.12368 7176 ft 156 kts 24°
2026-05-01 13:01 -19.84041 -40.11582 7174 ft 156 kts 22°
2026-05-01 13:02 -19.83020 -40.11193 7173 ft 156 kts 23°
2026-05-01 13:07 -19.61674 -40.02991 7168 ft 154 kts 22°
2026-05-01 13:07 -19.60638 -40.02675 7167 ft 156 kts 19°
2026-05-01 13:07 -19.59601 -40.02392 7167 ft 156 kts 19°
2026-05-01 13:08 -19.58549 -40.02108 7168 ft 155 kts 18°
2026-05-01 13:08 -19.57500 -40.01825 7168 ft 156 kts 19°
2026-05-01 13:08 -19.56450 -40.01537 7167 ft 156 kts 19°
2026-05-01 13:08 -19.55400 -40.01248 7165 ft 155 kts 19°
2026-05-01 13:09 -19.54354 -40.00955 7169 ft 156 kts 19°
2026-05-01 13:09 -19.53308 -40.00660 7168 ft 156 kts 19°
2026-05-01 13:09 -19.52265 -40.00363 7168 ft 155 kts 19°
2026-05-01 13:09 -19.51222 -40.00068 7168 ft 155 kts 19°
2026-05-01 13:10 -19.50177 -39.99772 7168 ft 156 kts 19°
2026-05-01 13:10 -19.49131 -39.99476 7168 ft 155 kts 19°
2026-05-01 13:10 -19.48088 -39.99180 7168 ft 155 kts 19°
2026-05-01 13:10 -19.47045 -39.98881 7167 ft 155 kts 19°
2026-05-01 13:11 -19.46000 -39.98583 7165 ft 156 kts 19°
2026-05-01 13:11 -19.44957 -39.98285 7165 ft 155 kts 19°
2026-05-01 13:11 -19.43915 -39.97987 7165 ft 155 kts 19°
2026-05-01 13:11 -19.42870 -39.97688 7165 ft 156 kts 19°
2026-05-01 13:12 -19.41824 -39.97389 7164 ft 155 kts 19°
2026-05-01 13:12 -19.40783 -39.97094 7165 ft 155 kts 19°
2026-05-01 13:12 -19.39742 -39.96801 7165 ft 155 kts 19°
2026-05-01 13:12 -19.38698 -39.96510 7165 ft 155 kts 20°
2026-05-01 13:13 -19.37669 -39.96217 7165 ft 155 kts 20°
2026-05-01 13:13 -19.36626 -39.95919 7162 ft 155 kts 19°
2026-05-01 13:13 -19.35581 -39.95622 7163 ft 156 kts 20°
2026-05-01 13:13 -19.34538 -39.95325 7163 ft 155 kts 20°
2026-05-01 13:14 -19.33495 -39.95027 7162 ft 155 kts 20°
2026-05-01 13:14 -19.32450 -39.94729 7162 ft 155 kts 20°
2026-05-01 13:14 -19.31411 -39.94429 7162 ft 155 kts 20°
2026-05-01 13:14 -19.30368 -39.94131 7162 ft 155 kts 20°
2026-05-01 13:15 -19.29326 -39.93836 7166 ft 155 kts 20°
2026-05-01 13:15 -19.28279 -39.93540 7165 ft 155 kts 20°
2026-05-01 13:15 -19.27236 -39.93245 7162 ft 155 kts 20°
2026-05-01 13:15 -19.26194 -39.92950 7162 ft 155 kts 20°
2026-05-01 13:16 -19.25153 -39.92653 7159 ft 155 kts 20°
2026-05-01 13:16 -19.24110 -39.92355 7159 ft 155 kts 20°
2026-05-01 13:16 -19.23069 -39.92059 7159 ft 155 kts 20°
2026-05-01 13:17 -19.19940 -39.91174 7159 ft 155 kts 20°
2026-05-01 13:17 -19.18899 -39.90876 7160 ft 155 kts 19°
2026-05-01 13:18 -19.16833 -39.90295 7158 ft 154 kts 20°
2026-05-01 13:18 -19.15793 -39.90004 7158 ft 155 kts 19°
2026-05-01 13:18 -19.14749 -39.89706 7157 ft 155 kts 20°
2026-05-01 13:18 -19.13708 -39.89404 7157 ft 155 kts 20°
2026-05-01 13:19 -19.12670 -39.89107 7156 ft 155 kts 20°
2026-05-01 13:19 -19.11633 -39.88807 7157 ft 155 kts 20°
2026-05-01 13:19 -19.09554 -39.88225 7157 ft 154 kts 19°
2026-05-01 13:20 -19.08517 -39.87931 7158 ft 155 kts 19°
2026-05-01 13:20 -19.07477 -39.87642 7157 ft 155 kts 19°
2026-05-01 13:20 -19.06435 -39.87353 7157 ft 155 kts 20°
2026-05-01 13:21 -19.04362 -39.86760 7161 ft 155 kts 19°
2026-05-01 13:21 -19.03316 -39.86461 7162 ft 157 kts 20°
2026-05-01 13:21 -19.02266 -39.86147 7161 ft 157 kts 19°
2026-05-01 13:21 -19.01207 -39.85861 7159 ft 157 kts 18°
2026-05-01 13:22 -19.00152 -39.85579 7156 ft 156 kts 19°
2026-05-01 13:22 -18.99104 -39.85284 7155 ft 156 kts 20°
2026-05-01 13:22 -18.98063 -39.84985 7153 ft 155 kts 20°
2026-05-01 13:22 -18.97017 -39.84682 7154 ft 156 kts 19°
2026-05-01 13:23 -18.95972 -39.84389 7155 ft 156 kts 20°
2026-05-01 13:23 -18.94941 -39.84093 7156 ft 156 kts 19°
2026-05-01 13:23 -18.93891 -39.83779 7155 ft 157 kts 20°
2026-05-01 13:23 -18.92838 -39.83466 7155 ft 158 kts 19°
2026-05-01 13:24 -18.91778 -39.83171 7155 ft 158 kts 18°
2026-05-01 13:24 -18.90711 -39.82888 7154 ft 157 kts 19°
2026-05-01 13:24 -18.89651 -39.82600 7154 ft 158 kts 19°
2026-05-01 13:25 -18.87544 -39.82002 7156 ft 156 kts 20°
2026-05-01 13:25 -18.86496 -39.81705 7156 ft 156 kts 19°
2026-05-01 13:25 -18.85445 -39.81409 7156 ft 156 kts 20°
2026-05-01 13:25 -18.84394 -39.81113 7156 ft 156 kts 20°
2026-05-01 13:26 -18.83351 -39.80813 7154 ft 155 kts 20°
2026-05-01 13:26 -18.82307 -39.80513 7157 ft 156 kts 19°
2026-05-01 13:26 -18.81256 -39.80213 7154 ft 157 kts 20°
2026-05-01 13:26 -18.80203 -39.79924 7155 ft 156 kts 19°
2026-05-01 13:27 -18.79153 -39.79631 7155 ft 156 kts 19°
2026-05-01 13:27 -18.78107 -39.79334 7151 ft 156 kts 20°
2026-05-01 13:27 -18.76014 -39.78745 7150 ft 155 kts 19°
2026-05-01 13:28 -18.73932 -39.78164 7154 ft 154 kts 20°
2026-05-01 13:28 -18.72893 -39.77871 7154 ft 155 kts 19°
2026-05-01 13:29 -18.70806 -39.77274 7154 ft 155 kts 20°
2026-05-01 13:29 -18.68730 -39.76685 7154 ft 155 kts 20°
2026-05-01 13:30 -18.64538 -39.75495 7152 ft 158 kts 19°
2026-05-01 13:31 -18.62423 -39.74906 7152 ft 157 kts 19°
2026-05-01 13:31 -18.59253 -39.74016 7152 ft 157 kts 19°
2026-05-01 13:32 -18.57136 -39.73424 7152 ft 157 kts 19°
2026-05-01 13:33 -18.54299 -39.72624 7149 ft 158 kts 19°
2026-05-01 13:33 -18.52196 -39.72031 7148 ft 157 kts 19°
2026-05-01 13:34 -18.50087 -39.71435 7149 ft 157 kts 19°
2026-05-01 13:34 -18.47976 -39.70839 7146 ft 157 kts 19°
2026-05-01 13:35 -18.45875 -39.70249 7146 ft 157 kts 19°
2026-05-01 13:35 -18.44819 -39.69953 7147 ft 158 kts 18°
2026-05-01 13:35 -18.42697 -39.69363 7147 ft 158 kts 19°
2026-05-01 13:36 -18.41641 -39.69066 7148 ft 157 kts 20°
2026-05-01 13:36 -18.40590 -39.68763 7148 ft 157 kts 19°
2026-05-01 13:36 -18.38479 -39.68175 7149 ft 157 kts 19°
2026-05-01 13:37 -18.37424 -39.67878 7149 ft 157 kts 19°
2026-05-01 13:37 -18.36369 -39.67577 7149 ft 157 kts 19°
2026-05-01 13:37 -18.35315 -39.67283 7149 ft 157 kts 19°
2026-05-01 13:37 -18.34252 -39.66996 7146 ft 158 kts 19°
2026-05-01 13:38 -18.32143 -39.66394 7147 ft 159 kts 19°
2026-05-01 13:38 -18.31080 -39.66098 7146 ft 158 kts 19°
2026-05-01 13:38 -18.30018 -39.65809 7145 ft 158 kts 20°
2026-05-01 13:39 -18.28958 -39.65493 7144 ft 158 kts 19°
2026-05-01 13:39 -18.27895 -39.65192 7143 ft 158 kts 19°
2026-05-01 13:39 -18.26829 -39.64900 7143 ft 158 kts 19°
2026-05-01 13:39 -18.25764 -39.64604 7144 ft 158 kts 19°
2026-05-01 13:40 -18.24700 -39.64312 7141 ft 158 kts 20°
2026-05-01 13:40 -18.23638 -39.64014 7143 ft 158 kts 19°
2026-05-01 13:40 -18.22578 -39.63713 7143 ft 157 kts 20°
2026-05-01 13:40 -18.21520 -39.63412 7143 ft 158 kts 19°
2026-05-01 13:41 -18.20456 -39.63123 7143 ft 158 kts 19°
2026-05-01 13:41 -18.19404 -39.62806 7144 ft 157 kts 23°
2026-05-01 13:41 -18.18381 -39.62408 7144 ft 157 kts 25°
2026-05-01 13:41 -18.17360 -39.62006 7143 ft 156 kts 24°
2026-05-01 13:42 -18.16341 -39.61615 7145 ft 156 kts 24°
2026-05-01 13:42 -18.15325 -39.61231 7145 ft 155 kts 24°
2026-05-01 13:42 -18.14307 -39.60850 7146 ft 156 kts 24°
2026-05-01 13:42 -18.13290 -39.60457 7147 ft 156 kts 24°
2026-05-01 13:43 -18.12269 -39.60068 7143 ft 156 kts 25°
2026-05-01 13:43 -18.11250 -39.59676 7144 ft 156 kts 24°
2026-05-01 13:43 -18.10226 -39.59275 7143 ft 157 kts 24°
2026-05-01 13:43 -18.09201 -39.58891 7142 ft 156 kts 24°
2026-05-01 13:44 -18.08177 -39.58514 7140 ft 157 kts 23°
2026-05-01 13:44 -18.07148 -39.58128 7141 ft 157 kts 24°
2026-05-01 13:44 -18.06124 -39.57736 7143 ft 157 kts 25°
2026-05-01 13:44 -18.05109 -39.57342 7141 ft 157 kts 23°
2026-05-01 13:45 -18.04065 -39.56951 7140 ft 157 kts 24°
2026-05-01 13:45 -18.03037 -39.56551 7139 ft 158 kts 25°
2026-05-01 13:45 -18.02004 -39.56151 7138 ft 158 kts 24°
2026-05-01 13:45 -18.00991 -39.55769 7137 ft 157 kts 24°
2026-05-01 13:46 -17.99962 -39.55387 7138 ft 157 kts 24°
2026-05-01 13:46 -17.98933 -39.54997 7138 ft 158 kts 25°
2026-05-01 13:46 -17.97905 -39.54600 7137 ft 157 kts 23°
2026-05-01 13:46 -17.96876 -39.54214 7138 ft 157 kts 24°
2026-05-01 13:47 -17.95847 -39.53824 7138 ft 157 kts 24°
2026-05-01 13:47 -17.94820 -39.53430 7138 ft 156 kts 24°
2026-05-01 13:47 -17.93799 -39.53041 7137 ft 156 kts 24°
2026-05-01 13:47 -17.92773 -39.52650 7137 ft 157 kts 24°
2026-05-01 13:48 -17.91751 -39.52254 7137 ft 157 kts 24°
2026-05-01 13:48 -17.90730 -39.51862 7138 ft 156 kts 24°
2026-05-01 13:48 -17.89708 -39.51475 7138 ft 156 kts 24°
2026-05-01 13:48 -17.88688 -39.51089 7138 ft 156 kts 25°
2026-05-01 13:49 -17.87665 -39.50698 7138 ft 157 kts 24°
2026-05-01 13:49 -17.86642 -39.50315 7138 ft 156 kts 24°
2026-05-01 13:49 -17.85616 -39.49941 7139 ft 157 kts 22°
2026-05-01 13:49 -17.84582 -39.49568 7139 ft 157 kts 25°
2026-05-01 13:50 -17.83564 -39.49159 7138 ft 157 kts 25°
2026-05-01 13:50 -17.82548 -39.48752 7138 ft 156 kts 24°
2026-05-01 13:50 -17.81523 -39.48364 7137 ft 156 kts 24°
2026-05-01 13:50 -17.80499 -39.47969 7138 ft 157 kts 25°
2026-05-01 13:51 -17.79496 -39.47578 7134 ft 155 kts 24°
2026-05-01 13:51 -17.78477 -39.47196 7135 ft 156 kts 24°
2026-05-01 13:51 -17.77452 -39.46805 7135 ft 157 kts 25°
2026-05-01 13:51 -17.76436 -39.46409 7135 ft 156 kts 24°
2026-05-01 13:52 -17.75414 -39.46024 7134 ft 156 kts 24°
2026-05-01 13:52 -17.74385 -39.45654 7132 ft 156 kts 24°
2026-05-01 13:52 -17.73360 -39.45264 7133 ft 157 kts 25°
2026-05-01 13:52 -17.72334 -39.44867 7133 ft 157 kts 24°
2026-05-01 13:53 -17.71306 -39.44481 7135 ft 157 kts 24°
2026-05-01 13:53 -17.69240 -39.43707 7138 ft 158 kts 25°
2026-05-01 13:53 -17.68210 -39.43313 7138 ft 157 kts 25°
2026-05-01 13:54 -17.67178 -39.42922 7135 ft 158 kts 24°
2026-05-01 13:54 -17.66141 -39.42531 7135 ft 158 kts 24°
2026-05-01 13:54 -17.65105 -39.42142 7135 ft 158 kts 25°
2026-05-01 13:54 -17.64079 -39.41745 7134 ft 157 kts 24°
2026-05-01 13:55 -17.63052 -39.41354 7135 ft 157 kts 25°
2026-05-01 13:55 -17.62026 -39.40953 7136 ft 158 kts 25°
2026-05-01 13:55 -17.60993 -39.40565 7136 ft 158 kts 24°
2026-05-01 13:55 -17.59965 -39.40170 7135 ft 157 kts 24°
2026-05-01 13:56 -17.58933 -39.39782 7135 ft 157 kts 24°
2026-05-01 13:56 -17.57901 -39.39397 7133 ft 158 kts 23°
2026-05-01 13:56 -17.56877 -39.39017 7132 ft 158 kts 25°
2026-05-01 13:56 -17.55848 -39.38618 7132 ft 157 kts 24°
2026-05-01 13:57 -17.54822 -39.38239 7135 ft 157 kts 24°
2026-05-01 13:57 -17.53790 -39.37856 7135 ft 158 kts 25°
2026-05-01 13:57 -17.52761 -39.37457 7135 ft 157 kts 25°
2026-05-01 13:57 -17.51736 -39.37060 7135 ft 157 kts 25°
2026-05-01 13:58 -17.50706 -39.36673 7133 ft 157 kts 25°
2026-05-01 13:58 -17.49677 -39.36280 7133 ft 157 kts 24°
2026-05-01 13:58 -17.48651 -39.35892 7133 ft 157 kts 25°
2026-05-01 13:58 -17.47624 -39.35499 7132 ft 158 kts 24°
2026-05-01 13:59 -17.46589 -39.35111 7133 ft 158 kts 24°
2026-05-01 13:59 -17.45557 -39.34723 7132 ft 157 kts 24°
2026-05-01 13:59 -17.44530 -39.34334 7133 ft 157 kts 24°
2026-05-01 13:59 -17.43500 -39.33947 7132 ft 157 kts 24°
2026-05-01 14:00 -17.42472 -39.33551 7135 ft 157 kts 24°
2026-05-01 14:00 -17.41442 -39.33174 7135 ft 157 kts 24°
2026-05-01 14:00 -17.40413 -39.32781 7135 ft 157 kts 25°
2026-05-01 14:00 -17.39387 -39.32388 7135 ft 157 kts 25°
2026-05-01 14:01 -17.38362 -39.31992 7133 ft 157 kts 25°
2026-05-01 14:01 -17.37334 -39.31598 7133 ft 157 kts 24°
2026-05-01 14:01 -17.36306 -39.31213 7132 ft 157 kts 24°
2026-05-01 14:01 -17.35291 -39.30837 7132 ft 157 kts 24°
2026-05-01 14:02 -17.34249 -39.30449 7130 ft 156 kts 24°
2026-05-01 14:02 -17.33240 -39.30068 7130 ft 156 kts 24°
2026-05-01 14:02 -17.32216 -39.29678 7130 ft 157 kts 24°
2026-05-01 14:02 -17.31189 -39.29291 7130 ft 156 kts 24°
2026-05-01 14:03 -17.30151 -39.28898 7130 ft 157 kts 24°
2026-05-01 14:03 -17.29138 -39.28520 7130 ft 156 kts 24°
2026-05-01 14:03 -17.28101 -39.28127 7130 ft 157 kts 24°
2026-05-01 14:03 -17.27079 -39.27738 7129 ft 156 kts 24°
2026-05-01 14:04 -17.26056 -39.27344 7130 ft 157 kts 24°
2026-05-01 14:04 -17.25040 -39.26961 7130 ft 157 kts 23°
2026-05-01 14:04 -17.24007 -39.26578 7130 ft 157 kts 24°
2026-05-01 14:04 -17.23312 -39.26315 7129 ft 158 kts 24°
2026-05-01 14:05 -17.21949 -39.25801 7128 ft 157 kts 24°
2026-05-01 14:05 -17.20919 -39.25407 7129 ft 158 kts 24°
2026-05-01 14:05 -17.19886 -39.25024 7130 ft 157 kts 24°
2026-05-01 14:05 -17.18861 -39.24640 7130 ft 157 kts 24°
2026-05-01 14:06 -17.17840 -39.24248 7132 ft 156 kts 24°
2026-05-01 14:06 -17.16815 -39.23861 7132 ft 157 kts 24°
2026-05-01 14:06 -17.15789 -39.23473 7132 ft 157 kts 24°
2026-05-01 14:06 -17.14762 -39.23087 7133 ft 157 kts 24°
2026-05-01 14:07 -17.13733 -39.22699 7130 ft 158 kts 24°
2026-05-01 14:07 -17.12702 -39.22310 7130 ft 157 kts 24°
2026-05-01 14:07 -17.11674 -39.21922 7130 ft 157 kts 24°
2026-05-01 14:08 -17.09602 -39.21199 7130 ft 157 kts 17°
2026-05-01 14:08 -17.08521 -39.21000 7129 ft 158 kts 15°
2026-05-01 14:08 -17.07437 -39.20785 7129 ft 159 kts 15°
2026-05-01 14:08 -17.06353 -39.20566 7129 ft 159 kts 15°
2026-05-01 14:09 -17.05269 -39.20345 7132 ft 159 kts 15°
2026-05-01 14:09 -17.04185 -39.20129 7132 ft 159 kts 15°
2026-05-01 14:09 -17.03101 -39.19914 7132 ft 159 kts 15°
2026-05-01 14:09 -17.02031 -39.19701 7132 ft 158 kts 15°
2026-05-01 14:10 -17.00947 -39.19485 7130 ft 158 kts 15°
2026-05-01 14:10 -16.99864 -39.19272 7127 ft 159 kts 15°
2026-05-01 14:10 -16.98781 -39.19059 7127 ft 159 kts 15°
2026-05-01 14:10 -16.97695 -39.18845 7127 ft 159 kts 15°
2026-05-01 14:11 -16.96614 -39.18627 7127 ft 158 kts 15°
2026-05-01 14:11 -16.94456 -39.18202 7128 ft 158 kts 15°
2026-05-01 14:11 -16.93378 -39.17991 7127 ft 157 kts 15°
2026-05-01 14:12 -16.92299 -39.17774 7127 ft 158 kts 15°
2026-05-01 14:12 -16.91220 -39.17560 7127 ft 158 kts 15°
2026-05-01 14:12 -16.90143 -39.17346 7124 ft 157 kts 15°
2026-05-01 14:12 -16.89065 -39.17133 7124 ft 158 kts 15°
2026-05-01 14:13 -16.87984 -39.16918 7125 ft 158 kts 15°
2026-05-01 14:13 -16.87270 -39.16776 7125 ft 158 kts 15°
2026-05-01 14:13 -16.85825 -39.16493 7125 ft 158 kts 15°
2026-05-01 14:13 -16.84743 -39.16278 7124 ft 158 kts 15°
2026-05-01 14:14 -16.83659 -39.16061 7125 ft 158 kts 15°
2026-05-01 14:14 -16.82577 -39.15853 7124 ft 158 kts 15°
2026-05-01 14:14 -16.81492 -39.15644 7124 ft 159 kts 15°
2026-05-01 14:14 -16.80410 -39.15427 7124 ft 158 kts 15°
2026-05-01 14:15 -16.79328 -39.15207 7122 ft 159 kts 15°
2026-05-01 14:15 -16.78258 -39.14999 7121 ft 158 kts 15°
2026-05-01 14:15 -16.77176 -39.14786 7121 ft 158 kts 15°
2026-05-01 14:15 -16.76092 -39.14569 7121 ft 159 kts 15°
2026-05-01 14:16 -16.75008 -39.14353 7123 ft 159 kts 15°
2026-05-01 14:16 -16.73921 -39.14133 7122 ft 159 kts 15°
2026-05-01 14:16 -16.72838 -39.13920 7120 ft 159 kts 15°
2026-05-01 14:16 -16.71751 -39.13709 7120 ft 158 kts 15°
2026-05-01 14:17 -16.70671 -39.13498 7117 ft 158 kts 15°
2026-05-01 14:17 -16.69587 -39.13286 7116 ft 159 kts 15°
2026-05-01 14:17 -16.68498 -39.13075 7116 ft 160 kts 15°
2026-05-01 14:17 -16.67411 -39.12864 7117 ft 159 kts 15°
2026-05-01 14:18 -16.66325 -39.12647 7116 ft 159 kts 16°
2026-05-01 14:18 -16.65235 -39.12423 7115 ft 160 kts 15°
2026-05-01 14:18 -16.64148 -39.12203 7115 ft 158 kts 15°
2026-05-01 14:18 -16.63433 -39.12061 7113 ft 158 kts 15°
2026-05-01 14:19 -16.61984 -39.11788 7112 ft 159 kts 15°
2026-05-01 14:19 -16.60897 -39.11570 7112 ft 159 kts 15°
2026-05-01 14:19 -16.59814 -39.11353 7111 ft 158 kts 15°
2026-05-01 14:19 -16.58735 -39.11147 7110 ft 158 kts 15°
2026-05-01 14:20 -16.57653 -39.10938 7110 ft 159 kts 15°
2026-05-01 14:20 -16.55479 -39.10525 7110 ft 158 kts 16°
2026-05-01 14:20 -16.54403 -39.10293 7110 ft 158 kts 15°
2026-05-01 14:21 -16.53688 -39.10149 7108 ft 158 kts 15°
2026-05-01 14:21 -16.52241 -39.09855 7108 ft 158 kts 15°
2026-05-01 14:21 -16.51177 -39.09644 7108 ft 157 kts 15°
2026-05-01 14:22 -16.49012 -39.09223 7108 ft 159 kts 15°
2026-05-01 14:22 -16.47927 -39.09014 7109 ft 158 kts 15°
2026-05-01 14:22 -16.46846 -39.08803 7109 ft 158 kts 15°
2026-05-01 14:22 -16.45765 -39.08587 7108 ft 158 kts 15°
2026-05-01 14:23 -16.45050 -39.08445 7109 ft 157 kts 15°
2026-05-01 14:23 -16.43965 -39.08294 7110 ft 158 kts
2026-05-01 14:23 -16.42857 -39.08327 7109 ft 161 kts
2026-05-01 14:23 -16.41736 -39.08332 7108 ft 160 kts
2026-05-01 14:24 -16.40626 -39.08359 7108 ft 160 kts
2026-05-01 14:24 -16.39515 -39.08394 7108 ft 160 kts
2026-05-01 14:24 -16.38403 -39.08418 7108 ft 160 kts
2026-05-01 14:24 -16.37289 -39.08436 7108 ft 160 kts
2026-05-01 14:25 -16.36175 -39.08443 7110 ft 161 kts
2026-05-01 14:25 -16.35045 -39.08458 7111 ft 163 kts
2026-05-01 14:25 -16.33909 -39.08550 7111 ft 164 kts
2026-05-01 14:25 -16.32768 -39.08568 7110 ft 164 kts
2026-05-01 14:26 -16.31623 -39.08541 7110 ft 165 kts
2026-05-01 14:26 -16.29318 -39.08586 7111 ft 163 kts
2026-05-01 14:26 -16.28188 -39.08610 7109 ft 163 kts
2026-05-01 14:27 -16.27057 -39.08633 7108 ft 162 kts
2026-05-01 14:27 -16.25930 -39.08631 7108 ft 161 kts
2026-05-01 14:27 -16.24811 -39.08643 7108 ft 160 kts
2026-05-01 14:28 -16.22605 -39.08694 7109 ft 159 kts
2026-05-01 14:28 -16.21494 -39.08723 7110 ft 160 kts
2026-05-01 14:28 -16.20380 -39.08748 7110 ft 160 kts
2026-05-01 14:28 -16.19272 -39.08777 7110 ft 159 kts
2026-05-01 14:29 -16.18163 -39.08805 7109 ft 159 kts
2026-05-01 14:29 -16.17053 -39.08832 7111 ft 160 kts
2026-05-01 14:30 -16.13716 -39.08905 7110 ft 160 kts
2026-05-01 14:30 -16.12605 -39.08929 7111 ft 160 kts
2026-05-01 14:30 -16.11493 -39.08952 7111 ft 160 kts
2026-05-01 14:31 -16.09271 -39.08988 7112 ft 160 kts
2026-05-01 14:31 -16.08153 -39.09005 7111 ft 161 kts
2026-05-01 14:31 -16.07033 -39.09028 7111 ft 160 kts
2026-05-01 14:31 -16.05920 -39.09053 7110 ft 160 kts
2026-05-01 14:32 -16.04805 -39.09080 7110 ft 160 kts
2026-05-01 14:32 -16.03691 -39.09105 7111 ft 161 kts
2026-05-01 14:32 -16.02574 -39.09127 7111 ft 160 kts
2026-05-01 14:32 -16.01456 -39.09146 7110 ft 161 kts
2026-05-01 14:33 -16.00339 -39.09166 7111 ft 160 kts
2026-05-01 14:33 -15.99226 -39.09187 7110 ft 161 kts
2026-05-01 14:33 -15.98111 -39.09209 7111 ft 160 kts
2026-05-01 14:33 -15.96996 -39.09232 7111 ft 161 kts
2026-05-01 14:34 -15.95878 -39.09258 7110 ft 160 kts
2026-05-01 14:34 -15.94765 -39.09281 7110 ft 160 kts
2026-05-01 14:34 -15.93652 -39.09302 7110 ft 160 kts
2026-05-01 14:34 -15.92541 -39.09321 7111 ft 160 kts
2026-05-01 14:35 -15.91429 -39.09342 7110 ft 160 kts
2026-05-01 14:35 -15.90316 -39.09366 7109 ft 160 kts
2026-05-01 14:35 -15.89205 -39.09389 7108 ft 160 kts
2026-05-01 14:35 -15.88094 -39.09416 7108 ft 160 kts
2026-05-01 14:36 -15.86978 -39.09439 7110 ft 160 kts
2026-05-01 14:36 -15.85863 -39.09458 7111 ft 160 kts
2026-05-01 14:36 -15.84750 -39.09477 7110 ft 160 kts
2026-05-01 14:36 -15.83638 -39.09498 7111 ft 160 kts
2026-05-01 14:37 -15.82523 -39.09522 7105 ft 160 kts
2026-05-01 14:37 -15.81409 -39.09550 7105 ft 160 kts
2026-05-01 14:37 -15.80295 -39.09574 7105 ft 160 kts
2026-05-01 14:37 -15.79179 -39.09596 7105 ft 160 kts
2026-05-01 14:38 -15.78062 -39.09617 7108 ft 160 kts
2026-05-01 14:38 -15.76948 -39.09636 7108 ft 160 kts
2026-05-01 14:38 -15.75847 -39.09658 7108 ft 160 kts
2026-05-01 14:38 -15.74730 -39.09683 7108 ft 160 kts
2026-05-01 14:39 -15.73615 -39.09707 7105 ft 160 kts
2026-05-01 14:39 -15.72501 -39.09730 7105 ft 160 kts
2026-05-01 14:39 -15.71387 -39.09751 7105 ft 160 kts
2026-05-01 14:39 -15.70274 -39.09772 7105 ft 160 kts
2026-05-01 14:40 -15.69163 -39.09794 7105 ft 160 kts
2026-05-01 14:40 -15.68050 -39.09814 7105 ft 160 kts
2026-05-01 14:40 -15.66936 -39.09840 7105 ft 160 kts
2026-05-01 14:40 -15.65824 -39.09861 7105 ft 160 kts
2026-05-01 14:41 -15.64712 -39.09882 7106 ft 160 kts
2026-05-01 14:41 -15.63599 -39.09898 7107 ft 160 kts
2026-05-01 14:41 -15.62503 -39.09727 7108 ft 159 kts 21°
2026-05-01 14:41 -15.61468 -39.09353 7104 ft 156 kts 24°
2026-05-01 14:42 -15.60439 -39.08987 7104 ft 156 kts 24°
2026-05-01 14:42 -15.59414 -39.08617 7103 ft 156 kts 25°
2026-05-01 14:42 -15.58395 -39.08240 7102 ft 156 kts 25°
2026-05-01 14:42 -15.57375 -39.07864 7102 ft 155 kts 25°
2026-05-01 14:43 -15.56358 -39.07490 7105 ft 155 kts 25°
2026-05-01 14:43 -15.55341 -39.07115 7105 ft 155 kts 25°
2026-05-01 14:43 -15.54320 -39.06744 7106 ft 156 kts 25°
2026-05-01 14:43 -15.53298 -39.06364 7106 ft 155 kts 25°
2026-05-01 14:44 -15.52276 -39.05992 7102 ft 156 kts 25°
2026-05-01 14:44 -15.50248 -39.05257 7102 ft 155 kts 25°
2026-05-01 14:44 -15.49235 -39.04873 7102 ft 155 kts 25°
2026-05-01 14:45 -15.48221 -39.04496 7105 ft 154 kts 25°
2026-05-01 14:45 -15.46196 -39.03749 7105 ft 155 kts 24°
2026-05-01 14:45 -15.45178 -39.03383 7105 ft 155 kts 24°
2026-05-01 14:46 -15.44157 -39.03014 7098 ft 156 kts 24°
2026-05-01 14:46 -15.42117 -39.02269 7097 ft 155 kts 24°
2026-05-01 14:46 -15.41101 -39.01896 7100 ft 155 kts 24°
2026-05-01 14:47 -15.40080 -39.01526 7098 ft 155 kts 24°
2026-05-01 14:47 -15.39060 -39.01163 7097 ft 155 kts 24°
2026-05-01 14:47 -15.38043 -39.00790 7097 ft 154 kts 25°
2026-05-01 14:48 -15.36012 -39.00042 7097 ft 155 kts 24°
2026-05-01 14:48 -15.34993 -38.99667 7097 ft 155 kts 24°
2026-05-01 14:48 -15.32956 -38.98928 7097 ft 155 kts 25°
2026-05-01 14:49 -15.30909 -38.98184 7097 ft 156 kts 24°
2026-05-01 14:49 -15.28874 -38.97436 7094 ft 155 kts 25°
2026-05-01 14:50 -15.27523 -38.96942 7094 ft 156 kts 24°
2026-05-01 14:50 -15.24784 -38.95945 7094 ft 156 kts 24°
2026-05-01 14:51 -15.23761 -38.95571 7093 ft 156 kts 24°
2026-05-01 14:51 -15.21715 -38.94823 7094 ft 156 kts 24°
2026-05-01 14:52 -15.19665 -38.94081 7091 ft 156 kts 24°
2026-05-01 14:52 -15.18642 -38.93708 7089 ft 155 kts 25°
2026-05-01 14:52 -15.16603 -38.92964 7089 ft 156 kts 24°
2026-05-01 14:53 -15.15590 -38.92598 7092 ft 157 kts 25°
2026-05-01 14:53 -15.14564 -38.92226 7092 ft 155 kts 24°
2026-05-01 14:53 -15.13541 -38.91863 7092 ft 156 kts 25°
2026-05-01 14:53 -15.12521 -38.91478 7092 ft 156 kts 25°
2026-05-01 14:54 -15.11496 -38.91098 7089 ft 156 kts 25°
2026-05-01 14:54 -15.10475 -38.90724 7089 ft 155 kts 25°
2026-05-01 14:54 -15.09454 -38.90353 7089 ft 156 kts 25°
2026-05-01 14:54 -15.08425 -38.89981 7087 ft 157 kts 25°
2026-05-01 14:55 -15.07393 -38.89607 7095 ft 157 kts 25°
2026-05-01 14:55 -15.06361 -38.89234 7095 ft 156 kts 25°
2026-05-01 14:55 -15.05335 -38.88862 7095 ft 156 kts 25°
2026-05-01 14:55 -15.04309 -38.88487 7095 ft 156 kts 25°
2026-05-01 14:56 -15.03280 -38.88109 7094 ft 157 kts 25°
2026-05-01 14:56 -15.02251 -38.87733 7094 ft 157 kts 25°
2026-05-01 14:56 -15.01216 -38.87364 7095 ft 157 kts 25°
2026-05-01 14:56 -15.00181 -38.86991 7096 ft 158 kts 25°
2026-05-01 14:57 -14.99152 -38.86604 7097 ft 158 kts 26°
2026-05-01 14:57 -14.97076 -38.85861 7097 ft 158 kts 24°
2026-05-01 14:57 -14.96041 -38.85484 7097 ft 157 kts 25°
2026-05-01 14:58 -14.95022 -38.85104 7093 ft 149 kts 25°
2026-05-01 14:58 -14.94081 -38.84769 7073 ft 145 kts 25°
2026-05-01 14:58 -14.93120 -38.84416 7101 ft 148 kts 25°
2026-05-01 14:58 -14.92140 -38.84052 7107 ft 152 kts 25°
2026-05-01 14:59 -14.91138 -38.83668 7106 ft 154 kts 25°
2026-05-01 14:59 -14.90104 -38.83332 7104 ft 158 kts 22°
2026-05-01 14:59 -14.89054 -38.82979 7100 ft 158 kts 24°
2026-05-01 14:59 -14.88025 -38.82562 7097 ft 159 kts 28°
2026-05-01 15:00 -14.85972 -38.81797 7095 ft 157 kts 25°
2026-05-01 15:00 -14.84939 -38.81428 7095 ft 157 kts 24°
2026-05-01 15:00 -14.83906 -38.81062 7096 ft 157 kts 24°
2026-05-01 15:01 -14.82878 -38.80683 7096 ft 156 kts 25°
2026-05-01 15:01 -14.81857 -38.80309 7095 ft 156 kts 25°
2026-05-01 15:01 -14.80834 -38.79938 7094 ft 156 kts 25°
2026-05-01 15:01 -14.79806 -38.79570 7094 ft 157 kts 24°
2026-05-01 15:02 -14.78776 -38.79203 7093 ft 156 kts 24°
2026-05-01 15:02 -14.78429 -38.79080 7093 ft 156 kts 24°
2026-05-01 15:02 -14.76722 -38.78468 7092 ft 156 kts 25°
2026-05-01 15:02 -14.75698 -38.78093 7080 ft 156 kts 25°
2026-05-01 15:03 -14.74672 -38.77717 7078 ft 157 kts 24°
2026-05-01 15:03 -14.73641 -38.77342 7078 ft 157 kts 25°
2026-05-01 15:03 -14.72612 -38.76970 7078 ft 156 kts 25°
2026-05-01 15:03 -14.71589 -38.76597 7078 ft 156 kts 25°
2026-05-01 15:04 -14.70570 -38.76226 7079 ft 156 kts 25°
2026-05-01 15:04 -14.69541 -38.75853 7078 ft 157 kts 25°
2026-05-01 15:04 -14.68512 -38.75478 7079 ft 157 kts 25°
2026-05-01 15:04 -14.67479 -38.75103 7079 ft 157 kts 24°
2026-05-01 15:05 -14.66444 -38.74733 7083 ft 158 kts 24°
2026-05-01 15:05 -14.65395 -38.74385 7082 ft 159 kts 24°
2026-05-01 15:05 -14.64344 -38.74020 7082 ft 159 kts 26°
2026-05-01 15:05 -14.63315 -38.73605 7080 ft 158 kts 26°
2026-05-01 15:06 -14.62289 -38.73200 7076 ft 158 kts 27°
2026-05-01 15:06 -14.61273 -38.72829 7077 ft 158 kts 24°
2026-05-01 15:06 -14.60234 -38.72468 7077 ft 157 kts 24°
2026-05-01 15:06 -14.59198 -38.72092 7077 ft 158 kts 25°
2026-05-01 15:07 -14.58164 -38.71717 7081 ft 158 kts 24°
2026-05-01 15:07 -14.57124 -38.71345 7076 ft 158 kts 24°
2026-05-01 15:07 -14.56086 -38.70970 7075 ft 158 kts 25°
2026-05-01 15:07 -14.55052 -38.70596 7075 ft 158 kts 25°
2026-05-01 15:08 -14.54015 -38.70220 7075 ft 158 kts 25°
2026-05-01 15:08 -14.52980 -38.69848 7075 ft 158 kts 25°
2026-05-01 15:08 -14.51945 -38.69475 7075 ft 157 kts 25°
2026-05-01 15:08 -14.50910 -38.69099 7075 ft 158 kts 25°
2026-05-01 15:09 -14.50223 -38.68848 7075 ft 158 kts 25°
2026-05-01 15:09 -14.49186 -38.68471 7075 ft 158 kts 25°
2026-05-01 15:09 -14.48150 -38.68101 7075 ft 157 kts 25°
2026-05-01 15:09 -14.47117 -38.67728 7075 ft 157 kts 25°
2026-05-01 15:10 -14.46078 -38.67349 7074 ft 159 kts 25°
2026-05-01 15:10 -14.43993 -38.66599 7077 ft 158 kts 25°
2026-05-01 15:10 -14.42957 -38.66218 7072 ft 158 kts 24°
2026-05-01 15:11 -14.41922 -38.65839 7070 ft 158 kts 24°
2026-05-01 15:11 -14.39853 -38.65094 7072 ft 158 kts 24°
2026-05-01 15:11 -14.38819 -38.64723 7072 ft 157 kts 24°
2026-05-01 15:12 -14.37800 -38.64356 7073 ft 157 kts 24°
2026-05-01 15:12 -14.35729 -38.63605 7072 ft 158 kts 24°
2026-05-01 15:12 -14.34697 -38.63231 7073 ft 157 kts 24°
2026-05-01 15:13 -14.31590 -38.62112 7073 ft 158 kts 24°
2026-05-01 15:14 -14.29506 -38.61366 7068 ft 159 kts 25°
2026-05-01 15:14 -14.28470 -38.60986 7069 ft 158 kts 25°
2026-05-01 15:14 -14.26394 -38.60237 7067 ft 158 kts 25°
2026-05-01 15:15 -14.24320 -38.59484 7067 ft 158 kts 25°
2026-05-01 15:15 -14.22244 -38.58733 7067 ft 158 kts 25°
2026-05-01 15:16 -14.20165 -38.57985 7067 ft 158 kts 25°
2026-05-01 15:16 -14.18087 -38.57233 7067 ft 158 kts 25°
2026-05-01 15:17 -14.16018 -38.56489 7064 ft 158 kts 25°
2026-05-01 15:18 -14.12907 -38.55365 7064 ft 157 kts 25°
2026-05-01 15:18 -14.11870 -38.54994 7064 ft 158 kts 25°
2026-05-01 15:19 -14.08763 -38.53865 7064 ft 157 kts 24°
2026-05-01 15:19 -14.06689 -38.53117 7064 ft 158 kts 24°
2026-05-01 15:19 -14.05651 -38.52744 7064 ft 158 kts 24°
2026-05-01 15:20 -14.03571 -38.51996 7062 ft 159 kts 24°
2026-05-01 15:20 -14.02529 -38.51624 7061 ft 159 kts 24°
2026-05-01 15:20 -14.01487 -38.51252 7063 ft 158 kts 25°
2026-05-01 15:21 -14.00444 -38.50876 7061 ft 159 kts 25°
2026-05-01 15:21 -13.99406 -38.50497 7060 ft 159 kts 25°
2026-05-01 15:21 -13.98364 -38.50119 7062 ft 159 kts 24°
2026-05-01 15:21 -13.97320 -38.49746 7061 ft 158 kts 25°
2026-05-01 15:22 -13.95248 -38.48998 7060 ft 158 kts 25°
2026-05-01 15:22 -13.94220 -38.48628 7063 ft 159 kts 25°
2026-05-01 15:22 -13.93176 -38.48254 7061 ft 159 kts 25°
2026-05-01 15:23 -13.92134 -38.47887 7060 ft 158 kts 22°
2026-05-01 15:23 -13.91049 -38.47676 7059 ft 160 kts 12°
2026-05-01 15:23 -13.89937 -38.47516 7058 ft 161 kts 14°
2026-05-01 15:23 -13.88827 -38.47347 7059 ft 161 kts 14°
2026-05-01 15:24 -13.87715 -38.47171 7056 ft 161 kts 14°
2026-05-01 15:24 -13.86604 -38.46991 7055 ft 162 kts 14°
2026-05-01 15:24 -13.85494 -38.46810 7056 ft 161 kts 14°
2026-05-01 15:24 -13.84384 -38.46635 7056 ft 162 kts 14°
2026-05-01 15:25 -13.83273 -38.46463 7054 ft 161 kts 14°
2026-05-01 15:25 -13.82159 -38.46292 7056 ft 162 kts 14°
2026-05-01 15:25 -13.81041 -38.46119 7056 ft 163 kts 14°
2026-05-01 15:25 -13.79922 -38.45946 7056 ft 162 kts 14°
2026-05-01 15:26 -13.78810 -38.45773 7058 ft 162 kts 14°
2026-05-01 15:26 -13.77694 -38.45600 7057 ft 163 kts 14°
2026-05-01 15:26 -13.76569 -38.45424 7056 ft 164 kts 14°
2026-05-01 15:26 -13.75442 -38.45250 7056 ft 164 kts 14°
2026-05-01 15:27 -13.74321 -38.45077 7054 ft 162 kts 14°
2026-05-01 15:27 -13.73202 -38.44901 7056 ft 163 kts 14°
2026-05-01 15:27 -13.72078 -38.44724 7053 ft 164 kts 14°
2026-05-01 15:28 -13.69831 -38.44378 7055 ft 163 kts 14°
2026-05-01 15:28 -13.68713 -38.44206 7053 ft 162 kts 14°
2026-05-01 15:28 -13.67594 -38.44031 7053 ft 163 kts 14°
2026-05-01 15:29 -13.65347 -38.43680 7053 ft 163 kts 14°
2026-05-01 15:29 -13.64227 -38.43507 7053 ft 162 kts 14°
2026-05-01 15:29 -13.61990 -38.43160 7053 ft 162 kts 14°
2026-05-01 15:30 -13.59751 -38.42814 7053 ft 163 kts 14°
2026-05-01 15:31 -13.55307 -38.42121 7051 ft 163 kts 14°
2026-05-01 15:31 -13.53071 -38.41778 7050 ft 163 kts 14°
2026-05-01 15:32 -13.50833 -38.41430 7053 ft 163 kts 14°
2026-05-01 15:32 -13.48591 -38.41083 7051 ft 163 kts 14°
2026-05-01 15:33 -13.45230 -38.40566 7051 ft 162 kts 14°
2026-05-01 15:34 -13.41868 -38.40041 7051 ft 162 kts 13°